Zurück zum Katalog

STARLINK-34239

AktivKommunikationVLEO
NORAD 64728·PAYLOAD·🇺🇸 United States

Gestartet Jul 2, 2025 von Cape Canaveral Space Force Station

Loading…

Nächste Überflüge (nächste 24 Stunden)

TLE

AktuellSource: CelesTrak SupGP

Epoche: Sep 15, 2026, 03:48 UTC

1 64728C 25144E   26258.15881944  .00060867  00000+0  17972-2 0  2588
2 64728  53.1599  18.5335 0001369  80.1187 324.6479 15.34379599    11

Verfolge STARLINK-34239 in Echtzeit mit AllMySat

Download on the App Store